N6AMQ-1 Weather Reports


time (UTC)temp
C
wind
direction
speed
KPH
gust
KPH
rain 1hr
cm
rain 24hr
cm
rain mn
cm
humidity
%
barometer
mb
20260507030248 18 315 0.0 0.0 0.00 0.00 0.00 66 1017.9
20260507025748 18 292 0.0 0.0 0.00 0.00 0.00 66 1017.9
20260507025350 18 315 0.0 0.0 0.00 0.00 0.00 66 1017.9
20260507025248 18 315 0.0 0.0 0.00 0.00 0.00 66 1017.9
20260507024748 18 270 0.0 0.0 0.00 0.00 0.00 65 1017.9
20260507023351 20 338 0.0 0.0 0.00 0.00 0.00 63 1017.9
20260507023248 20 315 0.0 0.0 0.00 0.00 0.00 62 1017.9
20260507022748 20 315 0.0 0.0 0.00 0.00 0.00 62 1017.9
20260507022248 20 292 0.0 0.0 0.00 0.00 0.00 61 1017.9
20260507021748 20 315 1.6 0.0 0.00 0.00 0.00 61 1017.9
20260507021350 20 315 1.6 4.8 0.00 0.00 0.00 60 1017.9
20260507021248 20 292 3.2 0.0 0.00 0.00 0.00 60 1017.9
20260507020748 20 315 1.6 3.2 0.00 0.00 0.00 60 1017.9
20260507020248 20 315 3.2 3.2 0.00 0.00 0.00 60 1017.9
20260507015748 21 270 1.6 1.6 0.00 0.00 0.00 59 1017.9
20260507015351 21 315 1.6 3.2 0.00 0.00 0.00 59 1017.9
20260507015248 21 315 0.0 4.8 0.00 0.00 0.00 59 1017.9
20260507014748 21 315 4.8 1.6 0.00 0.00 0.00 59 1017.9
20260507014248 21 315 3.2 4.8 0.00 0.00 0.00 59 1017.9
20260507013748 21 315 3.2 3.2 0.00 0.00 0.00 58 1017.9
20260507013350 21 292 3.2 3.2 0.00 0.00 0.00 58 1017.9
20260507013248 21 270 4.8 4.8 0.00 0.00 0.00 59 1017.9
20260507012748 21 270 3.2 3.2 0.00 0.00 0.00 59 1017.9
20260507012249 21 0 1.6 3.2 0.00 0.00 0.00 59 1017.9
20260507011748 21 338 4.8 4.8 0.00 0.00 0.00 59 1017.9
20260507011349 21 270 4.8 6.4 0.00 0.00 0.00 59 1017.9
20260507011248 21 292 3.2 6.4 0.00 0.00 0.00 59 1017.9
20260507010748 21 315 3.2 3.2 0.00 0.00 0.00 59 1017.9
20260507010248 21 292 1.6 6.4 0.00 0.00 0.00 59 1017.9
20260507005748 21 270 3.2 1.6 0.00 0.00 0.00 59 1017.9
20260507005353 21 315 0.0 3.2 0.00 0.00 0.00 59 1017.9
20260507005248 21 315 0.0 0.0 0.00 0.00 0.00 59 1017.9
20260507004750 22 0 1.6 1.6 0.00 0.00 0.00 59 1017.9
20260507003350 22 315 6.4 3.2 0.00 0.00 0.00 59 1017.9
20260507003248 22 270 4.8 4.8 0.00 0.00 0.00 59 1017.9
20260507002748 22 315 4.8 4.8 0.00 0.00 0.00 58 1017.9
20260507002248 22 270 4.8 3.2 0.00 0.00 0.00 59 1017.9
20260507001748 22 270 1.6 1.6 0.00 0.00 0.00 59 1017.9
20260507001350 22 270 0.0 4.8 0.00 0.00 0.00 58 1017.9
20260507001248 22 45 3.2 1.6 0.00 0.00 0.00 58 1017.9
20260507000748 22 0 1.6 0.0 0.00 0.00 0.00 59 1017.9
20260507000248 22 292 4.8 4.8 0.00 0.00 0.00 59 1017.9
20260506235748 22 315 6.4 8.0 0.00 0.00 0.00 58 1017.9
20260506235350 22 135 4.8 4.8 0.00 0.00 0.00 58 1017.9
20260506235248 22 45 6.4 6.4 0.00 0.00 0.00 58 1017.9
20260506234748 22 270 0.0 1.6 0.00 0.00 0.00 59 1017.9
20260506233748 22 315 6.4 6.4 0.00 0.00 0.00 58 1017.9
20260506233350 22 90 6.4 6.4 0.00 0.00 0.00 58 1017.9
20260506233248 22 292 6.4 4.8 0.00 0.00 0.00 58 1017.9
20260506232748 22 315 3.2 4.8 0.00 0.00 0.00 59 1017.9
20260506232248 22 315 6.4 3.2 0.00 0.00 0.00 58 1017.9
20260506231748 22 315 4.8 6.4 0.00 0.00 0.00 57 1017.9
20260506231351 22 315 4.8 6.4 0.00 0.00 0.00 58 1017.9
20260506231248 22 248 3.2 4.8 0.00 0.00 0.00 57 1017.9
20260506230748 22 0 4.8 4.8 0.00 0.00 0.00 57 1017.9
20260506225748 22 68 8.0 4.8 0.00 0.00 0.00 56 1017.9
20260506225351 22 315 6.4 6.4 0.00 0.00 0.00 57 1017.9
20260506225248 22 315 6.4 8.0 0.00 0.00 0.00 57 1017.9
20260506224248 22 338 4.8 3.2 0.00 0.00 0.00 56 1017.9
20260506223748 22 292 4.8 0.0 0.00 0.00 0.00 56 1017.9
20260506223350 22 0 3.2 0.0 0.00 0.00 0.00 56 1017.9
20260506223248 22 22 4.8 6.4 0.00 0.00 0.00 56 1017.9
20260506222248 22 270 3.2 4.8 0.00 0.00 0.00 56 1019.0
20260506221748 22 292 3.2 1.6 0.00 0.00 0.00 57 1019.0
20260506221350 22 315 4.8 3.2 0.00 0.00 0.00 58 1019.0
20260506221248 22 45 3.2 4.8 0.00 0.00 0.00 57 1019.0
20260506220748 21 68 0.0 4.8 0.00 0.00 0.00 58 1017.9
20260506220248 21 270 1.6 0.0 0.00 0.00 0.00 59 1017.9
20260506215748 21 315 4.8 4.8 0.00 0.00 0.00 58 1019.0
20260506215350 21 68 4.8 3.2 0.00 0.00 0.00 58 1019.0
20260506214748 21 135 0.0 0.0 0.00 0.00 0.00 59 1019.0
20260506214248 21 315 3.2 6.4 0.00 0.00 0.00 58 1019.0
20260506213748 21 0 1.6 0.0 0.00 0.00 0.00 60 1019.0
20260506213350 21 45 1.6 0.0 0.00 0.00 0.00 58 1019.0
20260506213248 21 135 1.6 1.6 0.00 0.00 0.00 58 1019.0
20260506212748 21 270 3.2 3.2 0.00 0.00 0.00 58 1019.0
20260506212248 21 292 4.8 3.2 0.00 0.00 0.00 59 1019.0
20260506211748 21 22 4.8 3.2 0.00 0.00 0.00 59 1019.0
20260506211350 21 270 3.2 0.0 0.00 0.00 0.00 59 1019.0
20260506211248 21 225 1.6 1.6 0.00 0.00 0.00 59 1019.0
20260506210748 21 315 0.0 0.0 0.00 0.00 0.00 59 1020.0
20260506210248 21 0 1.6 3.2 0.00 0.00 0.00 59 1020.0
20260506205748 21 45 3.2 4.8 0.00 0.00 0.00 60 1020.0
20260506205349 21 270 1.6 3.2 0.00 0.00 0.00 60 1020.0
20260506205248 21 315 3.2 0.0 0.00 0.00 0.00 60 1020.0
20260506204248 20 338 3.2 4.8 0.00 0.00 0.00 60 1020.0
20260506203748 20 292 0.0 0.0 0.00 0.00 0.00 62 1020.0
20260506203350 20 338 1.6 3.2 0.00 0.00 0.00 61 1020.0
20260506203248 20 0 6.4 1.6 0.00 0.00 0.00 61 1020.0
20260506202748 20 68 3.2 6.4 0.00 0.00 0.00 62 1020.0
20260506202248 20 270 3.2 3.2 0.00 0.00 0.00 63 1020.0
20260506201748 20 45 0.0 3.2 0.00 0.00 0.00 63 1020.0
20260506201351 20 68 1.6 4.8 0.00 0.00 0.00 63 1020.0
20260506201248 20 68 1.6 1.6 0.00 0.00 0.00 63 1020.0
20260506200748 20 270 3.2 1.6 0.00 0.00 0.00 63 1020.0
20260506200248 20 90 3.2 0.0 0.00 0.00 0.00 63 1020.0
20260506195351 19 0 4.8 4.8 0.00 0.00 0.00 63 1020.0
20260506195248 19 315 3.2 4.8 0.00 0.00 0.00 63 1020.0
20260506194748 19 315 0.0 4.8 0.00 0.00 0.00 65 1020.0
20260506194248 19 315 4.8 0.0 0.00 0.00 0.00 65 1020.0
20260506193748 19 248 3.2 0.0 0.00 0.00 0.00 64 1020.0
20260506193351 19 315 3.2 1.6 0.00 0.00 0.00 65 1020.0
20260506193248 19 248 1.6 0.0 0.00 0.00 0.00 65 1020.0
20260506192248 18 315 0.0 1.6 0.00 0.00 0.00 68 1021.0
20260506191749 18 22 4.8 1.6 0.00 0.00 0.00 68 1021.0
20260506191350 18 315 0.0 0.0 0.00 0.00 0.00 68 1021.0
20260506191248 18 158 1.6 1.6 0.00 0.00 0.00 68 1021.0
20260506190748 18 292 3.2 6.4 0.00 0.00 0.00 68 1021.0
20260506190248 18 292 1.6 1.6 0.00 0.00 0.00 68 1021.0
20260506185748 18 315 1.6 4.8 0.00 0.00 0.00 67 1021.0
20260506185350 18 90 0.0 0.0 0.00 0.00 0.00 68 1021.0
20260506185248 18 90 0.0 0.0 0.00 0.00 0.00 68 1021.0
20260506184748 18 292 0.0 0.0 0.00 0.00 0.00 69 1021.0
20260506184248 18 90 0.0 0.0 0.00 0.00 0.00 68 1021.0
20260506183750 18 315 0.0 1.6 0.00 0.00 0.00 68 1021.0
20260506183350 17 270 0.0 0.0 0.00 0.00 0.00 69 1021.0
20260506183248 17 315 0.0 0.0 0.00 0.00 0.00 69 1021.0
20260506182748 17 338 0.0 0.0 0.00 0.00 0.00 69 1021.0
20260506182248 17 202 0.0 0.0 0.00 0.00 0.00 71 1021.0
20260506181748 17 338 0.0 0.0 0.00 0.00 0.00 71 1021.0
20260506181350 17 45 0.0 0.0 0.00 0.00 0.00 70 1021.0
20260506181248 17 248 0.0 0.0 0.00 0.00 0.00 70 1021.0
20260506180748 17 315 0.0 0.0 0.00 0.00 0.00 72 1021.0
20260506180248 17 315 0.0 0.0 0.00 0.00 0.00 73 1021.0
20260506175748 16 292 0.0 0.0 0.00 0.00 0.00 73 1021.0
20260506175350 16 270 0.0 0.0 0.00 0.00 0.00 74 1021.0
20260506175248 16 202 0.0 0.0 0.00 0.00 0.00 75 1021.0
20260506174248 16 270 0.0 0.0 0.00 0.00 0.00 75 1021.0
20260506173748 16 270 0.0 0.0 0.00 0.00 0.00 76 1021.0
20260506173350 15 45 0.0 0.0 0.00 0.00 0.00 77 1021.0
20260506173248 15 270 0.0 0.0 0.00 0.00 0.00 78 1021.0
20260506172748 15 180 0.0 0.0 0.00 0.00 0.00 77 1021.0
20260506172248 15 292 0.0 0.0 0.00 0.00 0.00 77 1021.0
20260506171748 15 68 0.0 0.0 0.00 0.00 0.00 77 1021.0
20260506171350 15 90 0.0 0.0 0.00 0.00 0.00 77 1021.0
20260506171248 15 45 0.0 0.0 0.00 0.00 0.00 77 1021.0
20260506170748 15 68 0.0 0.0 0.00 0.00 0.00 77 1021.0
20260506170248 15 68 0.0 0.0 0.00 0.00 0.00 77 1021.0
20260506165748 15 292 0.0 0.0 0.00 0.00 0.00 78 1021.0
20260506165349 15 270 0.0 0.0 0.00 0.00 0.00 78 1021.0
20260506165248 15 270 0.0 0.0 0.00 0.00 0.00 78 1021.0
20260506164248 15 315 0.0 0.0 0.00 0.00 0.00 79 1021.0
20260506163748 15 292 0.0 0.0 0.00 0.00 0.00 79 1021.0
20260506163350 14 315 0.0 0.0 0.00 0.00 0.00 80 1021.0
20260506163248 14 270 0.0 0.0 0.00 0.00 0.00 80 1021.0
20260506162748 14 270 0.0 0.0 0.00 0.00 0.00 80 1021.0
20260506162248 14 270 0.0 0.0 0.00 0.00 0.00 81 1021.0
20260506161748 14 270 0.0 0.0 0.00 0.00 0.00 81 1021.0
20260506161350 14 45 0.0 0.0 0.00 0.00 0.00 82 1021.0
20260506160748 14 112 0.0 0.0 0.00 0.00 0.00 82 1021.0
20260506160248 14 202 0.0 0.0 0.00 0.00 0.00 83 1021.0
20260506155748 13 90 0.0 0.0 0.00 0.00 0.00 83 1021.0
20260506155350 13 112 0.0 0.0 0.00 0.00 0.00 83 1021.0
20260506155248 13 112 0.0 0.0 0.00 0.00 0.00 83 1021.0
20260506154248 13 112 0.0 0.0 0.00 0.00 0.00 84 1021.0
20260506153748 13 202 0.0 0.0 0.00 0.00 0.00 85 1021.0
20260506153350 13 158 0.0 0.0 0.00 0.00 0.00 85 1021.0
20260506153248 13 45 0.0 0.0 0.00 0.00 0.00 85 1021.0
20260506152248 13 180 0.0 0.0 0.00 0.00 0.00 86 1021.0
20260506151748 13 315 0.0 0.0 0.00 0.00 0.00 86 1021.0
20260506151350 13 45 0.0 0.0 0.00 0.00 0.00 86 1021.0
20260506151248 13 45 0.0 0.0 0.00 0.00 0.00 86 1021.0
20260506150748 13 248 0.0 0.0 0.00 0.00 0.00 86 1021.0
20260506150248 13 158 0.0 0.0 0.00 0.00 0.00 86 1021.0
20260506145748 13 135 0.0 0.0 0.00 0.00 0.00 86 1021.0
20260506145350 13 202 0.0 0.0 0.00 0.00 0.00 86 1021.0
20260506145248 13 202 0.0 0.0 0.00 0.00 0.00 86 1021.0
20260506144748 13 248 0.0 0.0 0.00 0.00 0.00 87 1021.0
20260506144248 13 158 0.0 0.0 0.00 0.00 0.00 87 1021.0
20260506143749 12 158 0.0 0.0 0.00 0.00 0.00 87 1021.0
20260506143350 12 68 0.0 0.0 0.00 0.00 0.00 87 1021.0
20260506143248 12 68 0.0 0.0 0.00 0.00 0.00 87 1021.0
20260506142748 12 45 0.0 0.0 0.00 0.00 0.00 88 1021.0
20260506142248 12 68 0.0 0.0 0.00 0.00 0.00 88 1021.0
20260506141748 12 68 0.0 0.0 0.00 0.00 0.00 88 1021.0
20260506141433 12 112 0.0 0.0 0.00 0.00 0.00 88 1021.0
20260506141350 12 112 0.0 0.0 0.00 0.00 0.00 88 1021.0
20260506141249 12 112 0.0 0.0 0.00 0.00 0.00 88 1021.0
20260506140748 12 135 0.0 0.0 0.00 0.00 0.00 88 1021.0
20260506140248 12 135 0.0 0.0 0.00 0.00 0.00 88 1021.0
20260506135748 12 135 0.0 0.0 0.00 0.00 0.00 88 1021.0
20260506135350 12 135 0.0 0.0 0.00 0.00 0.00 88 1020.0
20260506135248 12 135 0.0 0.0 0.00 0.00 0.00 88 1020.0
20260506134748 12 270 0.0 0.0 0.00 0.00 0.00 88 1020.0
20260506134248 12 270 0.0 0.0 0.00 0.00 0.00 88 1020.0
20260506133748 12 270 0.0 0.0 0.00 0.00 0.00 87 1020.0
20260506133350 12 270 0.0 0.0 0.00 0.00 0.00 88 1020.0
20260506133248 12 270 0.0 0.0 0.00 0.00 0.00 87 1020.0
20260506132748 12 315 0.0 0.0 0.00 0.00 0.00 87 1020.0
20260506132248 12 315 0.0 0.0 0.00 0.00 0.00 87 1020.0
20260506131748 12 315 0.0 0.0 0.00 0.00 0.00 87 1020.0
20260506131350 12 315 0.0 0.0 0.00 0.00 0.00 87 1020.0
20260506131248 12 315 0.0 0.0 0.00 0.00 0.00 87 1020.0
20260506130748 12 270 0.0 0.0 0.00 0.00 0.00 87 1020.0
20260506130248 12 270 0.0 0.0 0.00 0.00 0.00 87 1020.0
20260506125748 12 270 0.0 0.0 0.00 0.00 0.00 87 1020.0
20260506125351 12 248 0.0 0.0 0.00 0.00 0.00 87 1020.0
20260506125248 12 248 0.0 0.0 0.00 0.00 0.00 87 1020.0
20260506124748 12 248 0.0 0.0 0.00 0.00 0.00 87 1020.0
20260506124248 12 248 0.0 0.0 0.00 0.00 0.00 87 1020.0
20260506123748 12 248 0.0 0.0 0.00 0.00 0.00 87 1020.0
20260506123350 12 248 0.0 0.0 0.00 0.00 0.00 87 1020.0
20260506122748 12 248 0.0 0.0 0.00 0.00 0.00 87 1020.0
20260506122248 12 248 0.0 0.0 0.00 0.00 0.00 86 1020.0
20260506121748 12 315 0.0 0.0 0.00 0.00 0.00 86 1020.0
20260506121352 12 315 0.0 0.0 0.00 0.00 0.00 86 1020.0
20260506121248 12 338 0.0 0.0 0.00 0.00 0.00 85 1020.0
20260506120748 12 338 0.0 0.0 0.00 0.00 0.00 85 1020.0
20260506120248 12 338 0.0 0.0 0.00 0.00 0.00 85 1020.0
20260506115748 12 22 0.0 0.0 0.00 0.00 0.00 84 1020.0
20260506115352 12 292 0.0 0.0 0.00 0.00 0.00 84 1020.0
20260506115248 12 270 0.0 0.0 0.00 0.00 0.00 84 1020.0
20260506114748 12 270 0.0 0.0 0.00 0.00 0.00 84 1020.0
20260506114248 12 270 0.0 0.0 0.00 0.00 0.00 84 1020.0
20260506113748 12 270 0.0 0.0 0.00 0.00 0.00 84 1020.0
20260506113350 12 270 0.0 0.0 0.00 0.00 0.00 84 1020.0
20260506113248 12 270 0.0 0.0 0.00 0.00 0.00 84 1020.0
20260506112748 12 270 0.0 0.0 0.00 0.00 0.00 84 1020.0
20260506112248 13 270 0.0 0.0 0.00 0.00 0.00 84 1020.0
20260506111351 13 270 0.0 0.0 0.00 0.00 0.00 83 1020.0
20260506111248 13 270 0.0 0.0 0.00 0.00 0.00 83 1020.0
20260506110748 13 270 0.0 0.0 0.00 0.00 0.00 83 1019.0
20260506110248 13 270 0.0 0.0 0.00 0.00 0.00 83 1019.0
20260506105350 13 270 0.0 0.0 0.00 0.00 0.00 82 1019.0
20260506104748 13 270 0.0 0.0 0.00 0.00 0.00 82 1019.0
20260506104248 13 270 0.0 0.0 0.00 0.00 0.00 82 1019.0
20260506103748 13 270 0.0 0.0 0.00 0.00 0.00 82 1019.0
20260506103350 13 270 0.0 0.0 0.00 0.00 0.00 82 1019.0
20260506103248 13 270 0.0 0.0 0.00 0.00 0.00 82 1019.0
20260506102748 13 270 0.0 0.0 0.00 0.00 0.00 81 1019.0
20260506102248 13 270 0.0 0.0 0.00 0.00 0.00 81 1019.0
20260506101748 14 270 0.0 0.0 0.00 0.03 0.00 81 1019.0
20260506101351 14 270 0.0 0.0 0.00 0.03 0.00 81 1019.0
20260506101248 14 270 0.0 0.0 0.00 0.03 0.00 81 1019.0
20260506100748 14 292 0.0 0.0 0.00 0.03 0.00 81 1019.0
20260506100248 14 315 0.0 0.0 0.00 0.03 0.00 81 1019.0
20260506095748 14 292 0.0 0.0 0.00 0.03 0.00 81 1019.0
20260506095350 14 315 0.0 0.0 0.00 0.03 0.00 81 1019.0
20260506095248 14 315 0.0 0.0 0.00 0.03 0.00 81 1019.0
20260506094748 14 315 0.0 0.0 0.00 0.03 0.00 80 1019.0
20260506094248 14 315 0.0 0.0 0.00 0.03 0.00 80 1019.0
20260506093748 14 315 0.0 0.0 0.00 0.03 0.00 80 1019.0
20260506093350 14 315 0.0 0.0 0.00 0.03 0.00 80 1019.0
20260506093248 14 315 0.0 0.0 0.00 0.03 0.00 80 1019.0
20260506092248 14 315 0.0 0.0 0.00 0.03 0.00 80 1019.0
20260506091748 14 315 0.0 0.0 0.00 0.03 0.00 80 1019.0
20260506091350 14 315 0.0 0.0 0.00 0.03 0.00 80 1019.0
20260506091248 14 315 0.0 0.0 0.00 0.03 0.00 79 1019.0
20260506090748 14 315 0.0 0.0 0.00 0.03 0.00 79 1019.0
20260506090248 14 315 0.0 0.0 0.00 0.03 0.00 79 1019.0
20260506085748 14 315 0.0 0.0 0.00 0.03 0.00 79 1019.0
20260506085350 14 338 0.0 0.0 0.00 0.03 0.00 79 1019.0
20260506085248 14 338 0.0 0.0 0.00 0.03 0.00 79 1019.0
20260506084748 14 0 0.0 0.0 0.00 0.03 0.00 79 1019.0
20260506084248 14 292 0.0 0.0 0.00 0.03 0.00 78 1019.0
20260506083748 14 270 0.0 0.0 0.00 0.03 0.00 78 1019.0
20260506083350 14 315 0.0 0.0 0.00 0.03 0.00 78 1019.0
20260506083248 14 292 0.0 0.0 0.00 0.03 0.00 78 1019.0
20260506082748 14 315 0.0 0.0 0.00 0.03 0.00 78 1019.0
20260506082248 14 315 0.0 0.0 0.00 0.03 0.00 78 1019.0
20260506081748 14 315 0.0 0.0 0.00 0.03 0.00 78 1019.0
20260506081350 14 315 0.0 0.0 0.00 0.03 0.00 77 1019.0
20260506081248 14 315 0.0 0.0 0.00 0.03 0.00 77 1019.0
20260506080748 14 315 0.0 0.0 0.00 0.03 0.00 77 1019.0
20260506080248 14 338 0.0 0.0 0.00 0.03 0.00 77 1019.0
20260506073351 14 338 0.0 0.0 0.00 0.03 0.00 76 1019.0
20260506073248 14 338 0.0 0.0 0.00 0.03 0.00 76 1019.0
20260506072748 15 338 0.0 0.0 0.00 0.03 0.00 77 1019.0
20260506072248 15 315 0.0 0.0 0.00 0.03 0.00 77 1019.0
20260506071748 15 45 0.0 0.0 0.00 0.03 0.00 77 1019.0
20260506071351 15 45 0.0 0.0 0.00 0.03 0.00 78 1019.0
20260506071248 15 45 0.0 0.0 0.00 0.03 0.00 78 1019.0
20260506070748 15 22 0.0 0.0 0.00 0.03 0.00 78 1019.0
20260506070248 15 90 0.0 0.0 0.00 0.03 0.00 78 1019.0
20260506062248 15 90 0.0 0.0 0.00 0.03 0.03 76 1019.0
20260506061748 15 90 0.0 0.0 0.00 0.03 0.03 76 1019.0
20260506061350 15 112 0.0 0.0 0.00 0.03 0.03 75 1019.0
20260506061248 15 112 0.0 0.0 0.00 0.03 0.03 75 1019.0
20260506060748 15 135 0.0 0.0 0.00 0.03 0.03 75 1017.9
20260506060248 15 112 0.0 0.0 0.00 0.03 0.03 75 1017.9
20260506051350 15 180 0.0 0.0 0.00 0.03 0.03 74 1017.9
20260506051248 15 180 0.0 0.0 0.00 0.03 0.03 74 1017.9
20260506050748 15 180 0.0 0.0 0.00 0.03 0.03 74 1017.9
20260506050248 15 180 0.0 0.0 0.00 0.03 0.03 74 1017.9
20260506044748 15 202 0.0 0.0 0.00 0.03 0.03 74 1017.9
20260506044248 15 270 0.0 0.0 0.00 0.03 0.03 74 1017.9
20260506043748 15 202 0.0 0.0 0.00 0.03 0.03 74 1017.9
20260506043350 15 180 0.0 0.0 0.00 0.03 0.03 73 1017.9
20260506043248 15 180 0.0 0.0 0.00 0.03 0.03 73 1017.9
20260506042748 15 202 0.0 0.0 0.00 0.03 0.03 73 1017.9
20260506042248 15 202 0.0 0.0 0.00 0.03 0.03 73 1017.9
20260506041748 15 180 0.0 0.0 0.00 0.03 0.03 73 1017.9
20260506041350 15 158 0.0 0.0 0.00 0.03 0.03 73 1017.9
20260506041248 15 135 0.0 0.0 0.00 0.03 0.03 73 1017.9
20260506040248 16 202 0.0 0.0 0.00 0.03 0.03 72 1016.9
20260506035748 16 202 0.0 0.0 0.00 0.03 0.03 72 1016.9
20260506035349 16 270 0.0 0.0 0.00 0.03 0.03 72 1016.9
20260506035248 16 270 0.0 0.0 0.00 0.03 0.03 72 1016.9
20260506034748 16 270 0.0 0.0 0.00 0.03 0.03 72 1016.9
20260506034248 16 270 0.0 0.0 0.00 0.03 0.03 71 1016.9
20260506033748 16 270 0.0 0.0 0.00 0.03 0.03 72 1016.9
20260506033351 16 270 0.0 0.0 0.00 0.03 0.03 72 1016.9
20260506033248 16 270 0.0 0.0 0.00 0.03 0.03 72 1016.9
20260506032748 16 270 0.0 0.0 0.00 0.03 0.03 72 1016.9
20260506032248 16 202 0.0 0.0 0.00 0.03 0.03 72 1016.9
20260506031748 16 292 0.0 0.0 0.00 0.03 0.03 71 1016.9
20260506031351 16 270 0.0 0.0 0.00 0.03 0.03 71 1016.9
20260506030748 16 292 0.0 0.0 0.00 0.03 0.03 70 1016.9